Torna al catalogo

STARLINK-36224

AttivoComunicazioniVLEO
NORAD 67203·PAYLOAD·🇺🇸 United States

Lanciato Dec 17, 2025 da Vandenberg Space Force Base

Loading…

Prossimi Passaggi (prossime 24 ore)

TLE

AggiornatoSource: CelesTrak SupGP

Epoca: Sep 15, 2026, 03:47 UTC

1 67203C 25304M   26258.15812500 -.00023293  00000+0 -19528-2 0  2582
2 67203  70.0015  56.7614 0002584 268.8430 122.4379 14.98329414    16

Traccia STARLINK-36224 in tempo reale con AllMySat

Download on the App Store